Regional Weather Roundup
Issued by NWS

Home | Current Version | Previous Version | Text Only | Print | Product List | Glossary On
Versions: 1 2 3 4 5 6 7 8 9 10 11 12 13 14 15 16 17 18 19 20 21 22 23 24 25 26 27 28 29 30 31 32 33 34 35 36 37 38 39 40 41 42 43 44 45 46 47 48 49 50
000
ASUS43 KLMK 292102
RWRKY
KENTUCKY REGIONAL WEATHER ROUNDUP
NATIONAL WEATHER SERVICE LOUISVILLE KY
400 PM EST THU JAN 29 2015

NOTE "FAIR" INDICATES FEW OR NO CLOUDS BELOW 12,000 FEET
WITH NO SIGNIFICANT WEATHER AND/OR OBSTRUCTIONS TO VISIBILITY.

KYZ001>023-026-027-061>063-070>075-292200-
WESTERN AND SOUTH CENTRAL KENTUCKY

CITY           SKY/WX    TMP DP  RH WIND       PRES   REMARKS
PADUCAH        CLOUDY    43  32  65 NW10      30.19R
HENDERSON      CLOUDY    39  30  70 W17G24    30.15R WCI  30
OWENSBORO      CLOUDY    41  34  76 NW22G28   30.13R
HOPKINSVILLE   CLOUDY    45  35  68 NW14G26   30.12R
BOWLING GREEN  PTSUNNY   47  34  60 NW10G24   30.07R
GLASGOW        NOT AVBL
$$

KYZ024-025-028>034-038-045-046-053-292200-
NORTH CENTRAL KENTUCKY

CITY           SKY/WX    TMP DP  RH WIND       PRES   REMARKS
LOUISVILLE/SDF DRIZZLE   42  34  73 W25       30.06R
LOUISVILLE/LOU CLOUDY    41  33  73 W16G29    30.06R
FORT KNOX      CLOUDY    41  33  74 W18G25    30.04R
$$

KYZ035>037-039>044-047>052-055>060-089>105-292200-
NORTHEAST KENTUCKY

CITY           SKY/WX    TMP DP  RH WIND       PRES   REMARKS
LEXINGTON      CLOUDY    44  34  67 W21G35    29.98R
COVINGTON      CLOUDY    39  32  76 W25G35    29.95R WCI  28
FRANKFORT      CLOUDY    43  33  68 W18G26    29.99R
$$

KYZ054-064>069-076>088-106>120-292200-
SOUTHEAST KENTUCKY

CITY           SKY/WX    TMP DP  RH WIND       PRES   REMARKS
JACKSON        CLOUDY    53  37  54 SW8G17    29.90S
LONDON         MOSUNNY   60  35  39 W16G25    29.94R
SOMERSET       NOT AVBL
MIDDLESBORO    PTSUNNY   54  36  50 S9        29.98S
MONTICELLO     MOCLDY    60  40  47 W20G29    29.99R
$$



USA.gov is the U.S. government's official web portal to all federal, state and local government web resources and services.